Dewpoint
21 22 22 22 22 22 22 22 22 22 21 21 20 19 20 21 21 20 21 21 21 22 22 22 21 21 20 20 19 19 19 19 19 19 19 18 20 20 21 21 20 21 22 22 22 22 21 21 21 20 19 18 18 17 16 16 16 16 16 16 15 15 15 15 14 13 14 14 13 14 13 11 9 10 9 9 9 10 14 11 11 10 10 10 10
21 21 21 21 21 21 22 21 21 21 20 20 20 19 19 20 20 20 19 20 21 21 21 21 21 20 19 19 18 18 18 18 18 18 18 18 19 20 21 21 20 21 21 21 21 21 21 20 19 17 17 16 16 15 15 14 14 13 14 14 13 13 14 13 12 11 9 10 9 9 9 11 9 9 9 9 10 12 11 10 11 11 11 10 10
21 21 20 20 20 20 21 21 20 20 20 19 19 18 18 19 20 19 19 19 20 20 20 20 20 20 19 18 18 17 17 17 18 18 18 18 19 20 20 20 20 20 20 20 20 19 18 18 16 15 14 14 14 14 14 13 13 12 12 12 12 11 12 12 10 9 8 9 8 8 9 10 9 9 10 11 12 12 11 10 11 12 13 11 11
20 20 20 19 19 19 19 19 19 19 19 19 18 18 17 17 20 19 18 18 19 20 19 19 19 19 18 18 17 17 17 17 17 18 17 18 18 19 20 20 20 20 19 19 19 18 17 16 14 13 13 13 12 13 13 12 12 12 10 11 10 10 10 10 10 9 8 8 8 9 10 9 10 10 12 12 11 11 11 11 11 12 11 13 12
20 19 19 19 19 18 18 18 19 19 19 19 18 18 17 17 18 18 17 17 18 18 19 19 18 18 17 17 16 16 16 16 17 17 17 18 18 19 19 20 19 19 19 18 20 17 16 16 14 13 12 12 11 11 11 10 11 11 11 10 10 10 9 9 9 9 8 8 8 9 10 10 11 11 11 11 11 11 12 12 12 12 12 12 14
20 19 18 18 18 18 18 18 18 18 18 18 18 17 17 17 17 17 17 16 17 17 18 18 18 17 17 16 16 16 16 16 17 17 17 18 18 19 19 19 19 18 18 17 17 16 15 14 13 13 12 12 11 10 10 9 10 10 10 10 10 10 10 9 9 9 9 9 9 9 10 10 10 11 11 12 12 12 12 12 12 13 13 12 13
20 19 18 18 17 17 18 18 18 18 18 18 18 17 17 17 17 17 17 16 17 17 17 17 18 17 16 16 15 15 15 16 16 17 17 18 18 18 18 18 18 17 16 16 15 14 14 13 12 12 12 11 10 10 10 9 9 9 10 9 10 10 10 10 10 10 10 10 11 11 11 11 11 11 12 13 13 13 12 12 13 14 14 13 14
20 20 19 18 17 17 17 18 18 18 17 17 18 17 17 17 17 18 18 16 17 16 16 17 17 16 16 15 15 15 15 16 16 17 17 18 18 18 17 17 16 15 14 14 13 13 12 12 12 11 11 11 10 10 10 10 10 9 10 9 9 9 10 11 11 12 13 12 12 12 12 12 12 13 14 13 13 13 14 13 13 13 14 14 13
21 20 19 18 18 17 17 18 18 19 19 19 19 19 18 18 18 18 18 17 17 17 17 17 16 16 16 16 15 16 16 16 16 17 17 17 17 17 16 16 15 14 13 12 11 11 11 11 11 11 12 14 16 15 14 14 10 9 10 11 11 11 12 13 14 14 14 14 13 13 13 13 13 14 14 14 13 13 13 14 13 12 12 12 12
21 20 20 19 19 18 18 18 18 19 19 19 19 19 19 19 19 19 19 18 17 17 17 17 16 16 16 16 16 16 16 16 20 23 22 17 17 16 16 15 14 13 12 11 10 9 9 9 11 15 16 17 17 18 18 17 17 13 12 13 13 14 14 14 14 14 15 14 14 14 14 14 14 15 14 14 14 13 13 12 11 12 12 11 12
21 21 21 21 20 19 19 19 19 20 20 20 22 21 20 20 21 20 19 19 18 18 17 17 16 17 16 16 16 16 16 16 23 26 26 24 18 16 15 15 13 12 11 10 9 9 8 8 9 14 16 17 17 19 20 20 20 20 20 20 19 16 15 15 14 15 15 15 16 17 16 16 15 15 14 13 12 12 12 13 14 13 13 13 11
22 22 22 22 22 21 21 21 21 21 22 23 23 23 22 21 21 21 20 19 19 19 17 17 17 16 16 16 16 16 16 21 26 27 27 26 23 16 15 14 13 11 10 10 9 8 7 7 8 11 13 14 15 17 19 21 22 22 23 23 23 23 22 19 18 18 18 18 18 17 16 15 15 14 12 11 12 13 15 14 13 14 13 13 13
23 23 23 23 22 22 22 22 23 23 23 23 23 23 22 21 21 20 20 20 19 18 18 18 17 17 16 16 16 16 16 23 27 28 28 27 25 19 15 14 13 12 10 9 8 8 8 9 9 10 12 18 17 15 15 16 21 22 21 21 21 21 21 22 22 20 19 18 18 18 16 15 12 12 12 13 17 15 15 14 13 13 14 15 15
24 24 25 24 24 23 23 24 23 23 23 23 23 23 22 21 21 21 20 20 19 19 18 18 18 17 16 16 16 16 16 23 27 28 28 28 26 21 14 14 13 12 9 9 9 9 10 10 11 11 12 15 15 14 13 12 12 13 14 13 13 15 18 19 20 20 20 18 17 16 13 13 12 13 15 18 16 15 14 15 17 17 16 14 13
25 25 25 25 24 24 24 23 24 23 23 23 23 22 22 21 21 21 20 20 20 19 18 18 19 18 18 17 17 17 15 24 28 29 29 28 27 22 14 13 12 11 9 9 10 11 12 12 13 13 13 13 14 15 13 13 12 13 13 13 14 13 13 14 15 16 16 15 14 13 14 15 16 18 18 17 16 17 19 18 15 13 11 10 9
26 26 25 25 24 23 23 23 23 22 22 22 22 22 22 22 21 21 20 19 19 19 18 19 19 18 18 18 17 16 15 24 27 29 29 29 28 17 13 13 12 12 12 11 11 12 13 13 13 13 13 12 16 19 17 12 13 13 14 15 16 16 17 19 20 21 18 18 18 19 20 19 21 19 19 19 20 18 17 14 12 10 9 8 8
26 26 25 25 24 24 24 23 23 23 22 22 22 22 22 21 21 20 20 19 19 19 19 19 19 18 18 17 16 16 15 22 27 29 28 28 26 14 13 13 13 12 12 13 13 13 14 14 14 13 12 11 16 19 20 19 15 15 15 17 18 18 17 16 18 20 22 22 22 22 22 22 22 23 23 23 19 17 12 9 8 9 8 6 6
24 25 25 26 24 25 24 23 23 23 23 22 22 22 22 22 21 20 19 19 19 19 19 18 18 18 18 17 17 15 15 21 27 28 28 28 23 14 13 13 13 13 14 14 15 15 15 18 15 12 12 11 17 20 21 20 19 19 18 17 16 15 15 17 17 16 19 19 19 19 19 20 21 20 19 17 18 16 10 8 9 8 6 6 5
23 23 24 24 24 24 24 24 25 24 23 23 22 22 22 21 21 20 19 19 19 19 17 17 17 17 17 16 18 16 15 19 27 28 28 28 21 15 14 14 14 15 15 15 15 14 13 17 18 15 13 13 19 20 21 21 19 18 18 16 15 16 17 17 15 15 14 13 14 13 12 11 8 5 6 13 14 13 7 7 7 6 5 6 6
23 22 22 22 22 23 24 25 25 24 24 23 22 22 22 20 20 19 19 18 18 17 16 16 16 15 15 15 16 16 13 15 24 28 28 29 25 16 15 15 15 16 16 15 14 14 13 14 18 21 19 19 20 21 22 22 19 18 17 17 17 17 16 15 14 15 15 13 10 8 6 4 4 4 4 4 5 7 7 6 6 7 6 7 6
21 21 21 20 21 22 23 24 24 23 23 22 22 21 20 20 19 18 18 17 16 15 15 15 15 14 14 15 14 14 13 14 21 27 28 29 28 22 17 16 16 16 15 15 15 14 14 13 13 19 23 22 22 22 22 21 20 18 18 18 18 17 18 16 16 14 9 9 8 6 4 4 4 5 5 5 6 7 7 8 6 6 7 7 7
22 20 20 20 21 20 20 21 22 22 20 21 20 19 18 18 18 17 16 15 15 14 14 13 12 12 12 12 13 13 15 17 18 26 28 28 30 26 19 18 17 16 15 15 15 14 13 12 12 16 22 23 22 21 21 20 20 20 18 20 20 20 17 13 8 6 5 3 2 1 1 2 3 3 4 6 6 7 6 7 5 6 5 7 6
25 22 20 19 19 19 19 19 20 19 20 20 20 18 16 16 15 15 14 14 13 13 12 12 11 10 10 11 11 12 13 16 21 24 27 28 28 27 24 21 23 17 15 14 14 14 13 13 15 19 22 21 20 20 20 20 20 19 19 18 18 18 15 6 5 2 0 -1 -1 -1 -0 1 1 3 4 5 6 6 6 7 6 5 6 6 6
28 26 23 21 19 18 18 19 18 18 18 19 19 17 15 15 14 14 14 13 12 11 11 11 10 10 9 10 10 11 12 14 20 25 25 27 28 28 26 25 24 17 15 14 14 13 14 14 16 20 20 19 19 19 20 20 18 18 17 17 16 14 4 2 -1 -4 -2 -2 -2 -2 -1 1 3 3 4 5 5 5 5 5 5 5 5 7 6
28 27 26 24 21 19 18 18 18 17 18 18 18 16 15 14 13 13 13 13 12 11 10 10 10 10 10 10 10 10 10 12 15 22 26 27 27 28 26 25 25 22 15 15 15 14 17 19 20 20 18 18 19 19 18 16 15 14 13 14 13 3 -1 -4 -5 -5 -5 -4 -3 -2 0 2 3 3 2 2 4 5 6 6 6 7 7 7 8
25 25 26 25 23 20 19 18 18 17 17 18 17 16 14 13 13 13 12 12 12 11 10 10 10 10 9 10 9 10 10 12 14 18 23 25 26 27 26 25 24 22 18 16 18 20 21 21 20 18 17 18 12 7 7 6 11 13 12 10 1 -3 -4 -5 -5 -5 -4 -3 -1 -0 1 2 2 2 2 2 3 4 5 4 4 4 4 5 4
20 22 24 25 24 20 19 18 17 17 17 17 17 15 14 14 13 12 12 12 12 11 11 10 10 10 9 9 9 9 10 11 12 15 20 22 23 25 24 23 24 22 17 16 19 18 18 17 16 18 15 15 13 13 11 10 3 1 1 -0 -2 -4 -3 -5 -4 -1 0 1 1 1 1 2 2 3 2 2 2 3 4 4 3 3 4 4 5
15 18 21 23 23 21 19 16 16 16 16 16 16 15 14 14 13 12 12 12 11 11 11 10 10 10 9 9 9 8 9 9 10 13 18 20 21 23 23 21 20 19 17 17 17 16 16 18 15 8 4 2 1 -0 0 0 -0 -1 -3 -3 -4 -3 3 6 7 4 2 1 -0 0 0 0 -0 0 1 1 1 2 3 3 3 3 4 4 4
14 15 19 21 22 20 18 17 16 16 15 15 16 15 14 13 13 13 14 13 13 12 11 11 11 11 10 9 8 8 9 9 10 16 17 22 21 21 21 19 19 18 18 19 10 9 7 3 1 1 -1 -2 -4 -4 -5 -8 -6 -6 -7 -8 -8 -7 -7 -6 -6 -5 -4 -4 -3 -3 -2 -2 -1 0 0 0 0 1 3 3 3 3 4 4 4
13 15 18 19 21 20 17 16 16 15 15 14 14 14 16 18 16 13 13 16 17 17 16 12 12 12 11 11 10 8 8 9 15 18 21 24 25 25 24 23 22 18 21 20 12 6 4 2 0 -2 -3 -4 -6 -6 -6 -7 -7 -8 -8 0 -2 -6 -6 -6 -5 -5 -4 -3 -3 -3 -3 -2 -2 -1 -1 -0 0 2 3 6 3 4 3 4 4
12 14 17 18 19 19 18 17 15 14 14 14 13 13 12 15 19 19 17 17 17 18 18 18 17 17 13 11 13 15 13 15 19 20 21 24 25 25 24 24 23 23 22 13 8 4 2 1 -2 -3 -4 -5 -5 -6 -6 -6 -7 -7 -8 -8 -10 -7 -4 -5 -5 -5 -4 -3 -3 -3 -2 -2 -2 -1 -1 0 1 1 2 3 3 4 4 4 4
11 13 16 18 19 19 19 18 16 14 13 13 13 12 12 11 12 19 21 19 18 19 20 20 19 18 18 15 13 13 16 18 20 22 22 23 24 24 24 24 24 23 22 18 4 2 1 -0 -3 -4 -5 -5 -5 -5 -6 -6 -6 -7 -7 -8 -8 -6 -5 -5 -3 -4 -5 -4 -4 -3 -3 -2 -2 -1 -0 1 1 1 1 2 3 3 4 4 4
10 13 17 18 19 19 18 17 16 15 14 13 12 12 11 11 10 11 15 21 20 20 20 21 21 20 20 19 18 16 17 19 22 23 23 23 24 24 23 24 23 23 22 9 3 1 -1 -2 -4 -5 -5 -6 -6 -6 -7 -7 -7 -7 -7 -7 -7 -5 -4 -3 -3 -3 -4 -3 -2 -1 -1 -2 -1 -0 1 1 1 0 1 2 3 3 4 4 5
10 12 14 16 18 19 19 17 16 15 14 13 12 12 11 11 11 10 11 13 15 18 20 21 22 21 21 21 19 18 19 21 22 23 23 23 23 24 23 20 22 23 16 4 2 -1 -3 -4 -5 -6 -6 -7 -7 -7 -7 -7 -7 -7 -7 -6 -5 -4 -5 -5 -4 -4 -5 -4 -5 -4 -3 -2 -1 -1 -1 -1 0 1 1 2 3 4 4 5 4
11 12 14 15 17 18 19 19 17 15 14 13 12 11 11 11 11 10 10 11 12 13 14 16 20 21 18 19 20 20 20 22 23 23 23 23 24 24 23 17 17 14 7 1 1 -1 -4 -5 -6 -6 -7 -8 -8 -8 -8 -8 -8 -8 -8 -8 -7 -6 -5 -5 -6 -5 -6 -6 -5 -4 -2 -1 -1 -1 -0 -1 -0 1 2 3 4 4 5 4 3
4 6 9 11 13 16 19 19 18 15 14 13 12 11 11 10 10 10 11 11 12 12 13 15 16 20 21 20 21 21 21 23 23 24 23 24 24 23 16 15 9 5 2 -1 -2 -4 -4 -5 -6 -7 -7 -8 -8 -8 -8 -9 -9 -9 -9 -8 -8 -7 -8 -8 -7 -7 -6 -4 -3 -1 1 -2 -2 -2 -1 -0 1 2 3 3 4 5 5 4 4
6 9 13 15 17 19 19 19 18 15 16 13 12 11 10 10 10 10 10 11 11 12 13 14 16 17 19 18 19 21 22 23 24 23 24 23 24 19 12 9 5 1 -2 -4 -5 -6 -7 -7 -7 -8 -8 -9 -9 -9 -10 -10 -10 -10 -5 -5 -6 -7 -8 -8 -7 -4 -2 -2 -3 -5 -6 -5 -3 -2 -1 0 1 3 4 4 5 5 5 5 3
8 8 9 11 13 15 19 19 17 16 14 13 11 10 10 10 9 9 10 10 11 12 13 14 17 15 16 15 19 18 19 22 23 23 23 23 18 10 7 3 1 -1 -3 -6 -6 -6 -6 -8 -9 -10 -10 -11 -11 -11 -12 -13 -12 -11 -11 -10 -9 -9 -2 -3 -2 -5 -7 -8 -8 -7 -5 -4 -3 -2 0 1 2 3 4 5 5 5 4 3 2
-0 4 7 9 14 13 15 17 16 14 13 12 11 10 9 9 9 9 10 10 11 12 13 14 15 14 15 15 16 19 19 18 18 17 17 15 8 6 3 1 -1 -3 -5 -6 -7 -8 -8 -11 -11 -12 -12 -13 -13 -13 -14 -14 -13 -13 -11 -11 -11 -10 -10 -10 -10 -10 -9 -9 -8 -6 -5 -4 -3 -1 1 2 3 4 5 6 6 4 2 1 1
1 3 5 9 9 13 16 17 15 13 11 11 10 10 9 9 9 9 10 10 11 12 13 13 13 14 15 15 17 18 17 17 16 10 5 5 3 2 0 -2 -3 -5 -7 -8 -8 -9 -10 -11 -12 -13 -13 -14 -15 -16 -15 -14 -14 -13 -12 -12 -12 -12 -11 -11 -10 -10 -9 -9 -8 -6 -5 -4 -3 -1 1 3 4 5 6 6 4 3 2 1 1
4 4 6 9 9 9 11 14 14 12 11 10 10 9 9 9 9 9 10 10 11 12 12 13 13 14 15 16 20 20 16 12 5 4 4 2 1 -1 -2 -3 -5 -6 -8 -9 -9 -10 -11 -12 -14 -14 -15 -17 -18 -17 -16 -15 -15 -14 -14 -12 -12 -11 -11 -10 -10 -10 -9 -8 -8 -6 -5 -3 -1 0 1 3 7 7 6 5 3 3 2 1 1
-1 2 5 7 9 9 10 12 13 11 10 10 9 9 9 9 9 10 10 11 11 11 12 12 13 14 17 20 21 21 12 7 5 2 -0 -2 -2 -3 -5 -5 -6 -7 -8 -9 -10 -12 -13 -14 -15 -16 -17 -18 -18 -17 -17 -17 -16 -16 -15 -14 -14 -13 -12 -11 -10 -10 -9 -8 -7 -6 -4 -2 -0 2 3 9 4 5 6 4 3 2 2 1 0
1 3 5 8 11 12 12 13 12 11 10 10 9 8 9 9 10 10 10 11 11 11 11 11 11 13 17 21 18 16 3 1 -2 -3 -4 -5 -6 -7 -8 -8 -9 -9 -9 -10 -12 -12 -14 -15 -16 -17 -18 -18 -18 -17 -17 -17 -17 -17 -17 -16 -15 -14 -14 -12 -11 -10 -9 -7 -6 -4 -4 -2 -0 1 2 3 4 5 4 3 3 2 1 -0 -1
2 4 6 9 10 12 13 12 11 10 10 9 9 9 9 9 10 10 10 10 10 10 9 9 10 13 15 14 7 1 -2 -3 -4 -5 -6 -8 -8 -9 -10 -11 -14 -17 -17 -17 -18 -17 -17 -17 -18 -19 -19 -19 -18 -19 -18 -17 -18 -18 -18 -18 -16 -13 -13 -12 -11 -10 -8 -7 -6 -5 -4 -2 0 2 3 4 5 4 3 3 2 1 1 -0 -2
4 5 6 8 9 11 11 11 10 10 9 9 10 10 9 9 9 9 9 9 8 8 8 8 10 9 3 1 -0 -2 -4 -5 -7 -8 -8 -8 -9 -10 -12 -15 -16 -17 -18 -19 -20 -20 -19 -19 -19 -20 -20 -20 -19 -19 -19 -18 -18 -17 -17 -17 -17 -16 -14 -13 -12 -10 -8 -7 -6 -4 -3 -0 1 1 2 5 4 3 3 3 2 2 -0 -1 -2
4 6 7 8 9 8 8 9 8 9 8 9 9 9 9 9 9 8 7 7 6 6 6 7 5 1 0 -1 -3 -5 -5 -7 -8 -9 -9 -10 -11 -12 -14 -17 -18 -18 -19 -19 -20 -20 -19 -20 -20 -20 -20 -20 -20 -20 -19 -19 -19 -18 -18 -17 -16 -16 -15 -13 -13 -11 -9 -7 -5 -3 -1 1 2 3 5 5 3 3 3 3 2 1 -1 -2 -2
7 7 7 6 6 6 6 6 7 7 8 8 7 7 7 7 6 5 3 4 4 4 3 1 -0 -1 -3 -4 -6 -7 -8 -9 -10 -10 -10 -11 -13 -14 -17 -18 -19 -19 -20 -21 -21 -20 -20 -20 -20 -21 -20 -20 -20 -20 -20 -20 -21 -19 -17 -17 -16 -16 -15 -14 -12 -10 -8 -6 -3 -1 0 2 2 4 5 3 2 3 3 2 1 -0 -2 -2 -2
4 4 4 4 4 4 4 5 5 4 5 4 4 4 3 2 2 2 1 1 2 0 -1 -2 -3 -4 -6 -7 -7 -8 -9 -10 -10 -11 -11 -12 -14 -17 -18 -19 -19 -20 -21 -22 -22 -22 -22 -22 -22 -22 -21 -21 -20 -20 -20 -21 -21 -20 -19 -18 -17 -16 -15 -12 -11 -9 -7 -4 -2 1 2 3 5 6 3 2 2 3 3 2 1 -1 -2 -2 -2
1 2 2 2 2 3 3 3 2 3 2 1 -0 -0 -0 -0 -0 -0 -0 -0 -1 -2 -3 -4 -5 -6 -7 -8 -9 -10 -10 -12 -12 -12 -13 -14 -17 -18 -19 -19 -19 -21 -21 -21 -23 -23 -23 -23 -22 -23 -23 -22 -22 -22 -22 -21 -20 -20 -19 -19 -17 -13 -11 -9 -7 -6 -3 -0 2 4 7 8 6 3 2 2 3 3 3 1 -1 -2 -3 -3 -3
-1 -1 -1 -1 -1 -0 -0 -0 -0 -1 -1 -1 -2 -2 -2 -2 -2 -2 -2 -3 -3 -4 -4 -5 -6 -7 -8 -10 -11 -11 -12 -12 -13 -13 -14 -16 -17 -18 -19 -19 -21 -21 -22 -22 -23 -23 -25 -25 -25 -25 -24 -24 -24 -23 -22 -21 -21 -20 -20 -19 -13 -11 -8 -6 -3 -0 2 5 7 7 8 7 3 1 1 2 3 3 2 0 -1 -2 -3 -4 -4
-3 -3 -3 -2 -2 -2 -2 -2 -2 -2 -3 -3 -3 -3 -3 -3 -3 -4 -4 -4 -4 -5 -6 -7 -8 -9 -10 -11 -12 -12 -12 -12 -14 -15 -16 -16 -17 -18 -19 -20 -20 -21 -22 -23 -23 -24 -24 -25 -25 -25 -25 -23 -22 -22 -22 -21 -21 -20 -17 -14 -10 -7 -4 -1 2 5 7 8 8 9 8 5 2 1 1 3 4 3 2 -0 -2 -3 -4 -4 -4